Portsmouth, NH

1:02 PM EST on December 02, 2016 (GMT -0500)
Pease International Tradeport

Weather History for KPSM - October, 2014

Change the Weather History Date:

Tuesday, October 14, 2014

  Actual Average Record
Temperature  
Mean Temperature 66 °F -  
Max Temperature 77 °F 58 °F 78 °F (2000)
Min Temperature 57 °F 40 °F 22 °F (1993)
Cooling Degree Days 2    
Growing Degree Days 16 (Base 50)    
Moisture  
Dew Point 58 °F    
Average Humidity 80    
Maximum Humidity 93    
Minimum Humidity 60    
Precipitation  
Precipitation 0.00 in - - ()
Sea Level Pressure  
Sea Level Pressure 30.20 in    
Wind  
Wind Speed 6 mph (South)    
Max Wind Speed 13 mph    
Max Gust Speed 21 mph    
Visibility 10 miles    
Events      
Averages and records for this station are not official NWS values.
T = Trace of Precipitation, MM = Missing Value Source: NWS Daily Summary

Daily Weather History Graph

Daily Weather History Graph

Search for Another Location

Airport or City:

Trip Planner

Search our weather history database for the weather conditions in past years. The results will help you decide how hot, cold, wet, or windy it might be!

Date:

Astronomy

Oct. 14, 2014 Rise Set
Actual Time 6:55 AM EDT 6:02 PM EDT
Civil Twilight 6:27 AM EDT 6:30 PM EDT
Nautical Twilight 5:54 AM EDT 7:03 PM EDT
Astronomical Twilight 5:21 AM EDT 7:36 PM EDT
Moon 11:00 PM EDT (10/14) 12:58 PM EDT (10/14)
Length of Visible Light 12h 03m
Length of Day
11h 06m
Waning Gibbous, 61% of the Moon is Illuminated
Oct 14
Waning Gibbous
Oct 15
Last Quarter
Oct 23
New
Oct 30
First Quarter
Nov 6
Full

Hourly Weather History & Observations

Time (EDT) Temp. Dew Point Humidity Pressure Visibility Wind Dir Wind Speed Gust Speed Precip Events Conditions
12:58 AM 58.6 °F 52.9 °F 81% 30.24 in 10.0 mi SSW 4.6 mph - N/A   Overcast
1:58 AM 59.0 °F 53.1 °F 81% 30.25 in 10.0 mi South 3.5 mph - N/A   Overcast
2:58 AM 59.0 °F 53.2 °F 81% 30.24 in 10.0 mi South 5.8 mph - N/A   Overcast
3:58 AM 57.4 °F 53.2 °F 86% 30.22 in 10.0 mi SSE 4.6 mph - N/A   Overcast
4:58 AM 58.6 °F 54.0 °F 84% 30.23 in 10.0 mi SSW 5.8 mph - N/A   Overcast
5:58 AM 58.8 °F 54.5 °F 86% 30.23 in 10.0 mi South 4.6 mph - N/A   Overcast
6:36 AM 59.0 °F 55.4 °F 88% 30.23 in 8.0 mi SSW 4.6 mph - N/A   Overcast
6:58 AM 59.0 °F 55.2 °F 87% 30.24 in 8.0 mi South 2.3 mph - N/A   Overcast
7:58 AM 59.0 °F 55.2 °F 87% 30.24 in 10.0 mi South 3.5 mph - N/A   Overcast
8:58 AM 60.8 °F 56.3 °F 85% 30.25 in 10.0 mi SSW 3.5 mph - N/A   Overcast
9:58 AM 62.8 °F 57.7 °F 84% 30.24 in 10.0 mi South 5.8 mph - N/A   Overcast
10:58 AM 66.2 °F 59.9 °F 80% 30.24 in 10.0 mi SW 3.5 mph - N/A   Overcast
11:58 AM 70.9 °F 61.9 °F 73% 30.21 in 10.0 mi SSW 9.2 mph - N/A   Mostly Cloudy
12:58 PM 72.9 °F 62.4 °F 70% 30.19 in 10.0 mi SSW 5.8 mph - N/A   Mostly Cloudy
1:58 PM 75.7 °F 63.5 °F 66% 30.17 in 10.0 mi SW 12.7 mph - N/A   Mostly Cloudy
2:58 PM 76.1 °F 62.1 °F 62% 30.16 in 10.0 mi SW 11.5 mph 20.7 mph N/A   Mostly Cloudy
3:58 PM 76.1 °F 61.3 °F 60% 30.15 in 10.0 mi SSW 9.2 mph - N/A   Mostly Cloudy
4:58 PM 75.2 °F 61.5 °F 62% 30.15 in 10.0 mi SSW 9.2 mph - N/A   Mostly Cloudy
5:58 PM 72.1 °F 61.3 °F 69% 30.15 in 10.0 mi South 6.9 mph - N/A   Mostly Cloudy
6:58 PM 66.0 °F 59.7 °F 80% 30.15 in 10.0 mi SSE 6.9 mph - N/A   Mostly Cloudy
7:58 PM 64.6 °F 59.2 °F 83% 30.16 in 10.0 mi South 8.1 mph - N/A   Mostly Cloudy
8:58 PM 63.7 °F 59.0 °F 85% 30.17 in 10.0 mi SSE 6.9 mph - N/A   Mostly Cloudy
9:58 PM 61.2 °F 57.9 °F 89% 30.16 in 10.0 mi SSE 6.9 mph - N/A   Partly Cloudy
10:58 PM 61.9 °F 58.6 °F 89% 30.16 in 10.0 mi SSE 5.8 mph - N/A   Partly Cloudy
11:58 PM 60.1 °F 58.1 °F 93% 30.15 in 10.0 mi SE 9.2 mph - N/A   Partly Cloudy